Sisseton, SD

5:50 AM CDT on June 25, 2017 (GMT -0500)
Sisseton

Weather History for K8D3 - January, 2013

Change the Weather History Date:

Tuesday, January 15, 2013

  Actual Average Record
Temperature  
Mean Temperature 18 °F 13 °F  
Max Temperature 30 °F 23 °F 47 °F (1990)
Min Temperature 6 °F 3 °F -31 °F (2009)
Degree Days  
Heating Degree Days 47 52  
Month to date heating degree days 692 780  
Since 1 July heating degree days 4067 4119  
Cooling Degree Days 0 0  
Month to date cooling degree days 0 0  
Year to date cooling degree days 0 0  
Moisture  
Dew Point 8 °F    
Average Humidity 69    
Maximum Humidity 83    
Minimum Humidity 54    
Precipitation  
Precipitation 0.00 in 0.02 in 0.38 in (1980)
Month to date precipitation 0.14 0.24  
Year to date precipitation 0.14 0.24  
Snow  
Snow 0.00 in - - ()
Month to date snowfall 0.5  
Since 1 July snowfall 9.5  
Snow Depth T in    
Sea Level Pressure  
Sea Level Pressure 30.06 in    
Wind  
Wind Speed 13 mph (SW)    
Max Wind Speed 26 mph    
Max Gust Speed 36 mph    
T = Trace of Precipitation, MM = Missing Value Source: NWS Daily Summary

Daily Weather History Graph

Daily Weather History Graph

Search for Another Location

Airport or City:

Trip Planner

Search our weather history database for the weather conditions in past years. The results will help you decide how hot, cold, wet, or windy it might be!

Date:

Astronomy

Jan. 15, 2013 Rise Set
Actual Time 8:04 AM CST 5:10 PM CST
Civil Twilight 7:31 AM CST 5:44 PM CST
Nautical Twilight 6:54 AM CST 6:20 PM CST
Astronomical Twilight 6:19 AM CST 6:56 PM CST
Moon 9:55 AM CST (1/15) 10:19 PM CST (1/15)
Length of Visible Light 10h 12m
Length of Day
9h 06m
Waxing Crescent, 19% of the Moon is Illuminated
Jan 15
Waxing Crescent
Jan 18
First Quarter
Jan 26
Full
Feb 3
Last Quarter
Feb 10
New

Hourly Weather History & Observations

Time (CST) Temp. Windchill Dew Point Humidity Pressure Visibility Wind Dir Wind Speed Gust Speed Precip Events Conditions
12:56 AM 7.0 °F -5.7 °F 1.9 °F 80% 30.30 in - WSW 8.1 mph - N/A   Unknown
1:56 AM 9.0 °F -5.1 °F 3.9 °F 80% 30.28 in - West 10.4 mph - N/A   Unknown
2:56 AM 10.0 °F - 3.9 °F 76% 30.27 in - Calm Calm - N/A   Unknown
3:56 AM 10.0 °F -0.9 °F 5.0 °F 80% 30.24 in - South 6.9 mph - N/A   Unknown
4:56 AM 10.0 °F -0.9 °F 6.1 °F 84% 30.21 in - SSE 6.9 mph - N/A   Unknown
5:56 AM 14.0 °F 1.2 °F 7.0 °F 74% 30.19 in - South 10.4 mph - N/A   Unknown
6:56 AM 14.0 °F -0.8 °F 6.1 °F 71% 30.17 in - WSW 13.8 mph - N/A   Unknown
7:56 AM 12.0 °F -4.5 °F 3.9 °F 70% 30.17 in - WSW 16.1 mph - N/A   Unknown
8:56 AM 12.0 °F -5.6 °F 3.0 °F 67% 30.17 in - WSW 18.4 mph - N/A   Unknown
9:56 AM 14.0 °F -3.0 °F 3.9 °F 64% 30.14 in - SW 18.4 mph 27.6 mph N/A   Unknown
10:56 AM 16.0 °F -1.7 °F 5.0 °F 62% 30.12 in - WSW 21.9 mph 29.9 mph N/A   Unknown
11:56 AM 16.0 °F -2.1 °F 5.0 °F 62% 30.10 in - WSW 23.0 mph 32.2 mph N/A   Unknown
12:56 PM 19.9 °F 4.8 °F 6.1 °F 55% 30.06 in - WSW 18.4 mph 26.5 mph N/A   Unknown
1:56 PM 23.0 °F 18.4 °F 9.0 °F 55% 30.02 in - Variable 3.5 mph - N/A   Unknown
2:56 PM 21.9 °F 12.5 °F 9.0 °F 58% 30.02 in - SW 8.1 mph 17.3 mph N/A   Unknown
3:56 PM 19.9 °F 10.1 °F 9.0 °F 62% 30.03 in - SSW 8.1 mph - N/A   Unknown
4:56 PM 19.9 °F 13.4 °F 7.0 °F 57% 30.01 in - Variable 4.6 mph - N/A   Unknown
5:56 PM 19.0 °F 7.5 °F 7.0 °F 59% 29.98 in - SSW 10.4 mph - N/A   Unknown
6:56 PM 19.0 °F 8.2 °F 9.0 °F 65% 29.92 in - SSE 9.2 mph 19.6 mph N/A   Unknown
7:56 PM 19.9 °F 7.3 °F 10.9 °F 68% 29.88 in - WSW 12.7 mph 26.5 mph N/A   Unknown
8:56 PM 23.0 °F 9.2 °F 14.0 °F 68% 29.85 in - SW 17.3 mph 31.1 mph N/A   Unknown
9:56 PM 26.1 °F 12.3 °F 19.0 °F 75% 29.78 in - WSW 19.6 mph 25.3 mph N/A   Unknown
10:56 PM 27.0 °F 13.5 °F 21.9 °F 81% 29.74 in - WSW 19.6 mph 28.8 mph N/A   Unknown
11:56 PM 30.0 °F 16.0 °F 25.0 °F 82% 29.70 in - West 25.3 mph 33.4 mph N/A   Unknown